Location: Baia Mare
(47.6567°N, 23.5850°E)
Time: 20:38:29
(UTC+02:00)

ISS - Pass Details

Date: 09 February 2018
Orbit: 402 x 407 km, 51.6° (Epoch: 24 February)

Event Time Altitude Azimuth Distance (km) Brightness Sun altitude
Rises 18:57:10 0° 293° (WNW) 2,321 1.1 -13.6°
Reaches altitude 10° 18:59:15 10° 291° (WNW) 1,460 0.0 -13.9°
Maximum altitude 19:02:30 70° 208° (SSW) 433 -3.7 -14.5°
Enters shadow 19:04:21 23° 128° (SE) 899 -2.5 -14.8°
